Info: BRI BCA BNI MANDIRI CIMBNIAGA ONLINE | HARAP PERHATIKAN REKENING BANK AKTIF SEBELUM TRANFER DEPOSIT..INFO POKER88 DAPAT DILIHAT DI http:/pk88.info/
REGISTER JACKPOT DEPOSIT REFERRAL DOWNLOAD APPS PROMOSI VIP
JACKPOT
Jackpot Winner Texas Poker
Kini Telah hadir Jackpot SUPER ROYAL FLUSH
Kini Telah hadir Jackpot 2000 (khusus table VIP keatas).

Ikutilah global jackpot yang tersedia di system kami, dengan system jackpot terbaru dan pertama di indonesia, anda dapat membeli jackpot dengan harga 100 rupiah saja dan menangkan hadiahnya hingga puluhan juta rupiah.

Jackpot bukanlah suatu keharusan untuk dibeli, namun kami memberikan suatu fitur tambahan untuk member tercinta dari poker88.asia.

Terdapat tiga pilihan harga jackpot yang bisa anda beli yaitu :100,500,1000 dan 2000(khusus table VIP Keatas) rupiah.

Hadiah dari Multi jackpot system poker88.asia

  1. full house x 10 harga jackpot yang anda beli.
      (contoH:anda membeli 1000 maka:1000 X10 = 10.000)
  2. four of kind x 250 harga jackpot yang anda beli
      (contoH:anda membeli 1000 maka:1000 X250 = 250.000)
  3. Straight flush x 1200
      (contoH:anda membeli 1000 maka:1000 X1200 = 1.200.000)
  4. Royal flush x 10000 harga jackpot yang anda beli
      (contoH:anda membeli 1000 maka:1000 X10000 = 10.000.000)
  5. SUPER ROYAL FLUSH x 30000 harga jackpot yang anda beli
      (contoH:anda membeli 1000 maka:1000 X30000 = 30.000.000)

Kondisi kartu

  1. full house adalah kondisi kartu dimana kartu anda dan kartu tengah dengan total 7 kartu bisa mendapatkan nilai 5 kartu dengan kombinasi 1 tris(three of kind) dan 1 pair, contoh 3 kartu 10 dan 2 kartu 5
  2. Four of kind adalah kondisi kartu dimana kartu anda dan kartu tengah dengan total 7 kartu bisa mendapatkan nilai 5 kartu dengan kombinasi 4 kartu yang sama jumlah dan 1 kartu apapun juga contoh anda mendapatkan 4 buah kartu angka 3 dan 1 kartu apapun.
  3. Straight flush adalah kondisi kartu dimana kartu anda dan kartu tengah dengan total 7 kartu bisa mendapatkan nilai 5 kartu dengan kombinasi seri / staright dengan kembang yang sama contoh : urutan kartu dari angka 5, 6, 7, 8 , 9 10 dengan kembang yg sama misalnya as hati
  4. Royal flush adalah kondisi kartu dimana kartu anda dan kartu tengah dengan total 7 kartu bisa mendapatkan nilai 5 kartu dengan kombinasi seri / staright dengan kembang yang sama tetapi kartu tersebut haruslah dimulai dari 10. contoh 10, Queen, Jack, King dan aces dengan kembang yang sama
  5. Super Royal flush adalah kondisi kartu dimana Kedua kartu anda digabung dengan 3 kartu pertama meja haruslah royal flush. contoh kartu anda10,Queen dan 3 kartu pertama meja adalah Jack, King dan aces dengan kembang yang sama

Demikian adalah penjelasan dari Multi Jackpot poker88.asia terima kasih dan selamat bermain salam hoki dari kami

Jackpot Winner
TOP SUPER ROYAL FLUSH
No.TanggalNamaPriceWin
126/09 11:22UCOK0206Super Royal flush15,000,000
226/09 11:08NOPRI1987Super Royal flush15,000,000
326/09 06:07PANANGGUAKSuper Royal flush30,000,000
426/09 00:40L45TCHIPSuper Royal flush15,000,000
525/09 23:17ANDO6060Super Royal flush3,000,000
TOP ROYAL FLUSH
No.TanggalNamaPriceWin
126/09 12:16JBX938CAETRoyal flush5,000,000
226/09 12:02DW1245ASRoyal flush20,000,000
326/09 11:44SNP378Royal flush5,000,000
426/09 10:24OTSUK4Royal flush5,000,000
526/09 09:42TAILA50Royal flush5,000,000
TOP STRAIGHT FLUSH
No.TanggalNamaPriceWin
126/09 12:15S78AAP0K3RStraight Flush600,000
226/09 12:13T4DPAPIROYStraight Flush1,200,000
326/09 12:07ZALDY1234Straight Flush240,000
426/09 12:07IEBE270386Straight Flush600,000
526/09 12:04BLOEXSStraight Flush120,000
LATEST JACKPOT
No.TanggalNamaPriceWin
126/09 12:19T4DNYUNFull House5,000
226/09 12:19MARIJAN09Full House5,000
326/09 12:19L4UT4NFull House1,000
426/09 12:19B3437KOWFull House1,000
526/09 12:19TABUHRAH86Full House20,000
626/09 12:19UNTUNG40JTFull House5,000
726/09 12:19KONRESFour Of A Kind125,000
826/09 12:19KETSARAPORFull House1,000
926/09 12:19EBEG77Full House10,000
1026/09 12:19WANTO87Full House2,000
1126/09 12:19KINGKARTFull House2,000
1226/09 12:19SANPKRFull House5,000
1326/09 12:19G10WRZNYZPFull House1,000
1426/09 12:19DEFRI_JACKFull House2,000
1526/09 12:19GAJAH999Full House10,000
1626/09 12:19M4DARA168Full House5,000
1726/09 12:19YOY77Full House5,000
1826/09 12:19DYBALA010Four Of A Kind25,000
1926/09 12:19BJKONYOLFull House1,000
2026/09 12:18COOLBOY99Full House5,000
2126/09 12:18ASA1979Full House2,000
2226/09 12:18POTENG_22Full House10,000
2326/09 12:18MADSUD02Full House10,000
2426/09 12:18PASU299Full House20,000
2526/09 12:18PLGONESSFull House1,000
2626/09 12:18T4ONFull House1,000
2726/09 12:18RESCUE88Full House5,000
2826/09 12:18BOBOL_JPFour Of A Kind50,000
2926/09 12:18STRETPLASHFull House5,000
3026/09 12:18ALOY096Full House2,000
3126/09 12:18HOKIK1Full House1,000
3226/09 12:18MASCUYFull House2,000
3326/09 12:18DWBTNAUM74Full House5,000
3426/09 12:18SPAROW86Full House1,000
3526/09 12:18BJV86Four Of A Kind25,000
3626/09 12:18ALMEL11Full House2,000
3726/09 12:18VD7XV8S0ORFull House10,000
3826/09 12:18T4DPHONEIXFull House5,000
3926/09 12:18ARISKA25Full House1,000
4026/09 12:182KURCACIFull House5,000
4126/09 12:18BASIC113Full House1,000
4226/09 12:18WINTER11Full House2,000
4326/09 12:18AGUSAM09Full House10,000
4426/09 12:18AC0NK94Full House5,000
4526/09 12:18GHINANFull House2,000
4626/09 12:18HANDSY12OKFull House1,000
4726/09 12:18JK_QKFull House2,000
4826/09 12:18ROSDINI77Full House1,000
4926/09 12:18NDOGCOIFull House5,000
5026/09 12:18KIVARAFull House2,000
Dewa.FM